Lubbock, TX

9:22 AM CST on December 15, 2019 (GMT -0600)
Lubbock International

Weather History for KLBB - May, 2019

Change the Weather History Date:

Friday, May 31, 2019

  Actual Average Record
Temperature  
Mean Temperature 70 °F 74 °F  
Max Temperature 82 °F 88 °F 102 °F (1916)
Min Temperature 57 °F 61 °F 43 °F (1983)
Degree Days  
Heating Degree Days 0 0  
Month to date heating degree days 52 39  
Since 1 July heating degree days 3449 3377  
Cooling Degree Days 4 9  
Month to date cooling degree days 147 190  
Year to date cooling degree days 210 246  
Growing Degree Days 20 (Base 50)    
Moisture  
Dew Point 59 °F    
Average Humidity 70    
Maximum Humidity 93    
Minimum Humidity 47    
Precipitation  
Precipitation 0.03 in 0.10 in 2.26 in (1963)
Month to date precipitation 3.96 2.30  
Year to date precipitation 6.88 6.21  
Snow  
Snow 0.00 in 0.00 in T in (1990)
Month to date snowfall T 0.0  
Since 1 July snowfall 10.1 8.2  
Snow Depth 0.00 in    
Sea Level Pressure  
Sea Level Pressure 29.97 in    
Wind  
Wind Speed 8 mph ()    
Max Wind Speed 15 mph    
Max Gust Speed 21 mph    
Visibility 10.0 miles    
Events Rain    
T = Trace of Precipitation, MM = Missing Value Source: Averaged Metar Reports

Daily Weather History Graph

Daily Weather History Graph

Search for Another Location

Airport or City:

Astronomy

May. 31, 2019 Rise Set
Actual Time 6:38 AM CDT 8:51 PM CDT
Civil Twilight 6:09 AM CDT 9:20 PM CDT
Nautical Twilight 5:35 AM CDT 9:55 PM CDT
Astronomical Twilight 4:57 AM CDT 10:33 PM CDT
Moon 5:01 AM CDT (5/31) 6:13 PM CDT (5/31)
Length of Visible Light 15h 10m
Length of Day
14h 13m
Waning Crescent, 8% of the Moon is Illuminated
May 31
Waning Crescent
Jun 3
New
Jun 10
First Quarter
Jun 17
Full
Jun 25
Last Quarter

Hourly Weather History & Observations

Time (CDT) Temp. Heat Index Dew Point Humidity Pressure Visibility Wind Dir Wind Speed Gust Speed Precip Events Conditions
12:43 AM 64.9 °F - 60.1 °F 84% 30.11 in 10.0 mi North 11.5 mph - 0.01 in Rain Light Rain
12:53 AM 63.0 °F - 57.0 °F 81% 29.99 in 10.0 mi NNE 11.5 mph - 0.01 in Rain Light Rain
1:53 AM 62.1 °F - 57.0 °F 84% 30.03 in 10.0 mi North 10.4 mph - 0.00 in Rain Light Rain
2:53 AM 60.1 °F - 55.9 °F 86% 30.01 in 10.0 mi North 9.2 mph - 0.02 in   Scattered Clouds
3:53 AM 59.0 °F - 55.9 °F 90% 29.99 in 10.0 mi NE 8.1 mph - N/A   Scattered Clouds
4:53 AM 59.0 °F - 55.0 °F 87% 29.99 in 10.0 mi NE 8.1 mph - N/A   Scattered Clouds
5:53 AM 57.9 °F - 55.0 °F 90% 29.99 in 10.0 mi NE 6.9 mph - N/A   Partly Cloudy
6:53 AM 57.0 °F - 55.0 °F 93% 30.00 in 10.0 mi NE 3.5 mph - N/A   Scattered Clouds
7:53 AM 62.1 °F - 57.0 °F 84% 30.00 in 10.0 mi NE 4.6 mph - N/A   Partly Cloudy
8:53 AM 64.9 °F - 59.0 °F 81% 30.01 in 10.0 mi SE 3.5 mph - N/A   Partly Cloudy
9:53 AM 68.0 °F - 60.1 °F 76% 30.02 in 10.0 mi South 6.9 mph - N/A   Partly Cloudy
10:53 AM 72.0 °F - 59.0 °F 64% 30.01 in 10.0 mi SSE 6.9 mph - N/A   Partly Cloudy
11:53 AM 73.9 °F - 59.0 °F 59% 30.01 in 10.0 mi SSE 6.9 mph - N/A   Mostly Cloudy
12:53 PM 75.9 °F - 59.0 °F 56% 30.00 in 10.0 mi South 5.8 mph - N/A   Mostly Cloudy
1:53 PM 78.1 °F - 62.1 °F 58% 29.98 in 10.0 mi South 12.7 mph 17.3 mph N/A   Scattered Clouds
2:53 PM 79.0 °F - 60.1 °F 52% 29.96 in 10.0 mi Variable 3.5 mph - N/A   Scattered Clouds
3:53 PM 81.0 °F 81.6 °F 60.1 °F 49% 29.94 in 10.0 mi SSW 6.9 mph - N/A   Mostly Cloudy
4:53 PM 82.0 °F 82.4 °F 60.1 °F 47% 29.91 in 10.0 mi SE 9.2 mph - N/A   Scattered Clouds
5:53 PM 82.0 °F 82.4 °F 60.1 °F 47% 29.89 in 10.0 mi SSE 8.1 mph - N/A   Scattered Clouds
6:53 PM 82.0 °F 82.7 °F 61.0 °F 49% 29.86 in 10.0 mi SSE 13.8 mph 18.4 mph N/A   Mostly Cloudy
7:53 PM 79.0 °F - 61.0 °F 54% 29.87 in 10.0 mi SSE 13.8 mph - N/A   Partly Cloudy
8:53 PM 75.9 °F - 62.1 °F 62% 29.88 in 10.0 mi SE 11.5 mph - N/A   Partly Cloudy
9:53 PM 73.0 °F - 63.0 °F 71% 29.89 in 10.0 mi SSE 11.5 mph - N/A   Partly Cloudy
10:53 PM 72.0 °F - 64.0 °F 76% 29.93 in 10.0 mi SSE 10.4 mph - N/A   Mostly Cloudy
11:53 PM 72.0 °F - 64.9 °F 78% 29.93 in 10.0 mi South 11.5 mph - N/A   Scattered Clouds